contact:dominique.lefevre@mio.osupytheas.fr, maurice.libes@osupytheas.fr, didier.mallarino@osupytheas.fr
Project:EMSO http://www.emso-fr.org/EMSO-France
Depth: 2436.0 m
Title:EMSO Ligure Ouest : Data MII capteur CSTAR
DateTime,Latitude,Longitude,Instrument_Serial,Reference_Counts,Signal_Counts,Corrected_Signal_raw_counts,Calculated_Beam_c_inverse_meters,Internal_thermistor_counts
DateTime,Latitude,Longitude,Instrument_Serial,Reference_Counts,Signal_Counts,Corrected_Signal_raw_counts,Calculated_Beam_c_inverse_meters,Internal_thermistor_counts
2023-12-19T00:01:07,42.805,6.029,CST-1368DR,4082,4333,11245,01.313,553
2023-12-19T00:04:08,42.805,6.029,CST-1368DR,4081,4331,11242,01.315,553
2023-12-19T00:07:10,42.805,6.029,CST-1368DR,4082,4332,11243,01.314,553
2023-12-19T00:10:11,42.805,6.029,CST-1368DR,4082,4332,11244,01.314,553
2023-12-19T00:13:13,42.805,6.029,CST-1368DR,4082,4331,11241,01.315,553
2023-12-19T00:16:15,42.805,6.029,CST-1368DR,4082,4332,11244,01.314,553
2023-12-19T00:19:16,42.805,6.029,CST-1368DR,4082,4332,11242,01.315,553
2023-12-19T00:22:18,42.805,6.029,CST-1368DR,4082,4332,11244,01.314,553
2023-12-19T00:25:19,42.805,6.029,CST-1368DR,4082,4332,11244,01.314,553
2023-12-19T00:28:21,42.805,6.029,CST-1368DR,4082,4332,11243,01.314,553
2023-12-19T00:31:22,42.805,6.029,CST-1368DR,4082,4333,11246,01.313,553
2023-12-19T00:34:24,42.805,6.029,CST-1368DR,4082,4334,11247,01.313,553
2023-12-19T00:37:26,42.805,6.029,CST-1368DR,4082,4333,11246,01.313,553
2023-12-19T00:40:27,42.805,6.029,CST-1368DR,4082,4334,11247,01.313,553
2023-12-19T00:43:29,42.805,6.029,CST-1368DR,4082,4332,11243,01.314,553
2023-12-19T00:46:30,42.805,6.029,CST-1368DR,4082,4333,11246,01.313,553
2023-12-19T00:49:32,42.805,6.029,CST-1368DR,4082,4333,11245,01.313,553
2023-12-19T00:52:34,42.805,6.029,CST-1368DR,4082,4334,11249,01.312,553
2023-12-19T00:55:35,42.805,6.029,CST-1368DR,4082,4332,11244,01.314,553
2023-12-19T00:58:37,42.805,6.029,CST-1368DR,4082,4332,11244,01.314,553
2023-12-19T01:01:38,42.805,6.029,CST-1368DR,4082,4333,11246,01.313,553
2023-12-19T01:04:40,42.805,6.029,CST-1368DR,4082,4333,11247,01.313,553
2023-12-19T01:07:41,42.805,6.029,CST-1368DR,4082,4332,11243,01.314,553
2023-12-19T01:10:43,42.805,6.029,CST-1368DR,4082,4332,11244,01.314,553
2023-12-19T01:13:45,42.805,6.029,CST-1368DR,4082,4333,11245,01.313,553
2023-12-19T01:16:46,42.805,6.029,CST-1368DR,4082,4333,11245,01.313,553
2023-12-19T01:19:48,42.805,6.029,CST-1368DR,4082,4332,11244,01.314,553
2023-12-19T01:22:49,42.805,6.029,CST-1368DR,4082,4332,11244,01.314,553
2023-12-19T01:25:51,42.805,6.029,CST-1368DR,4082,4332,11244,01.314,553
2023-12-19T01:28:52,42.805,6.029,CST-1368DR,4082,4332,11244,01.314,553
2023-12-19T01:31:54,42.805,6.029,CST-1368DR,4082,4331,11242,01.315,553
2023-12-19T01:34:56,42.805,6.029,CST-1368DR,4082,4332,11243,01.314,553
2023-12-19T01:37:57,42.805,6.029,CST-1368DR,4082,4331,11240,01.315,553
2023-12-19T01:40:59,42.805,6.029,CST-1368DR,4082,4329,11236,01.317,553
2023-12-19T01:44:00,42.805,6.029,CST-1368DR,4082,4331,11240,01.315,553
2023-12-19T01:47:02,42.805,6.029,CST-1368DR,4082,4331,11241,01.315,553
2023-12-19T01:50:04,42.805,6.029,CST-1368DR,4082,4332,11242,01.315,553
2023-12-19T01:53:05,42.805,6.029,CST-1368DR,4082,4331,11240,01.315,553
2023-12-19T01:56:07,42.805,6.029,CST-1368DR,4082,4331,11242,01.315,553
2023-12-19T01:59:08,42.805,6.029,CST-1368DR,4082,4332,11243,01.314,553
2023-12-19T02:02:10,42.805,6.029,CST-1368DR,4082,4332,11242,01.315,553
2023-12-19T02:05:11,42.805,6.029,CST-1368DR,4082,4326,11229,01.319,553
2023-12-19T02:08:13,42.805,6.029,CST-1368DR,4082,4327,11231,01.318,553
2023-12-19T02:11:15,42.805,6.029,CST-1368DR,4082,4331,11240,01.315,553
2023-12-19T02:14:16,42.805,6.029,CST-1368DR,4082,4332,11244,01.314,553
2023-12-19T02:17:18,42.805,6.029,CST-1368DR,4082,4332,11244,01.314,553
2023-12-19T02:20:19,42.805,6.029,CST-1368DR,4082,4332,11244,01.314,553
2023-12-19T02:23:21,42.805,6.029,CST-1368DR,4082,4333,11246,01.313,553
2023-12-19T02:26:22,42.805,6.029,CST-1368DR,4082,4333,11245,01.313,553
2023-12-19T02:29:24,42.805,6.029,CST-1368DR,4082,4332,11244,01.314,553
2023-12-19T02:32:26,42.805,6.029,CST-1368DR,4082,4332,11242,01.315,553
2023-12-19T02:35:27,42.805,6.029,CST-1368DR,4082,4333,11246,01.313,553
2023-12-19T02:38:29,42.805,6.029,CST-1368DR,4082,4332,11243,01.314,553
2023-12-19T02:41:30,42.805,6.029,CST-1368DR,4082,4330,11239,01.316,553
2023-12-19T02:44:32,42.805,6.029,CST-1368DR,4082,4331,11241,01.315,553
2023-12-19T02:47:34,42.805,6.029,CST-1368DR,4082,4332,11242,01.315,553
2023-12-19T02:50:35,42.805,6.029,CST-1368DR,4082,4331,11242,01.315,553
2023-12-19T02:53:37,42.805,6.029,CST-1368DR,4082,4332,11244,01.314,553
2023-12-19T02:56:38,42.805,6.029,CST-1368DR,4082,4332,11243,01.314,553
2023-12-19T02:59:40,42.805,6.029,CST-1368DR,4082,4332,11242,01.315,553
2023-12-19T03:02:41,42.805,6.029,CST-1368DR,4082,4331,11242,01.315,553
2023-12-19T03:05:43,42.805,6.029,CST-1368DR,4082,4332,11242,01.315,553
2023-12-19T03:08:45,42.805,6.029,CST-1368DR,4082,4332,11243,01.314,553
2023-12-19T03:11:46,42.805,6.029,CST-1368DR,4082,4331,11240,01.315,553
2023-12-19T03:14:48,42.805,6.029,CST-1368DR,4082,4331,11240,01.315,553
2023-12-19T03:17:49,42.805,6.029,CST-1368DR,4082,4330,11239,01.316,553
2023-12-19T03:20:51,42.805,6.029,CST-1368DR,4082,4331,11240,01.315,553
2023-12-19T03:23:52,42.805,6.029,CST-1368DR,4082,4331,11240,01.315,553
2023-12-19T03:26:54,42.805,6.029,CST-1368DR,4082,4329,11235,01.317,553
2023-12-19T03:29:56,42.805,6.029,CST-1368DR,4082,4318,11207,01.327,553
2023-12-19T03:32:57,42.805,6.029,CST-1368DR,4081,4318,11210,01.326,553
2023-12-19T03:35:59,42.805,6.029,CST-1368DR,4082,4319,11210,01.326,553
2023-12-19T03:39:00,42.805,6.029,CST-1368DR,4082,4319,11209,01.326,553
2023-12-19T03:42:02,42.805,6.029,CST-1368DR,4082,4316,11203,01.328,553
2023-12-19T03:45:04,42.805,6.029,CST-1368DR,4082,4319,11209,01.326,553
2023-12-19T03:48:05,42.805,6.029,CST-1368DR,4082,4318,11207,01.327,553
2023-12-19T03:51:07,42.805,6.029,CST-1368DR,4082,4319,11209,01.326,553
2023-12-19T03:54:08,42.805,6.029,CST-1368DR,4082,4318,11207,01.327,553
2023-12-19T03:57:10,42.805,6.029,CST-1368DR,4081,4311,11192,01.332,553
2023-12-19T04:00:11,42.805,6.029,CST-1368DR,4082,4318,11206,01.327,553
2023-12-19T04:03:13,42.805,6.029,CST-1368DR,4082,4317,11205,01.328,553
2023-12-19T04:06:15,42.805,6.029,CST-1368DR,4082,4318,11206,01.327,553
2023-12-19T04:09:16,42.805,6.029,CST-1368DR,4082,4317,11205,01.328,553
2023-12-19T04:12:18,42.805,6.029,CST-1368DR,4082,4318,11208,01.327,553
2023-12-19T04:15:19,42.805,6.029,CST-1368DR,4082,4320,11212,01.325,553
2023-12-19T04:18:21,42.805,6.029,CST-1368DR,4082,4317,11205,01.328,553
2023-12-19T04:21:22,42.805,6.029,CST-1368DR,4082,4319,11210,01.326,553
2023-12-19T04:24:24,42.805,6.029,CST-1368DR,4081,4318,11210,01.326,553
2023-12-19T04:27:26,42.805,6.029,CST-1368DR,4082,4319,11209,01.326,553
2023-12-19T04:30:27,42.805,6.029,CST-1368DR,4082,4320,11212,01.325,553
2023-12-19T04:33:29,42.805,6.029,CST-1368DR,4082,4320,11212,01.325,553
2023-12-19T04:36:30,42.805,6.029,CST-1368DR,4082,4321,11214,01.325,553
2023-12-19T04:39:32,42.805,6.029,CST-1368DR,4082,4321,11214,01.325,553
2023-12-19T04:42:33,42.805,6.029,CST-1368DR,4082,4320,11213,01.325,553
2023-12-19T04:45:35,42.805,6.029,CST-1368DR,4082,4318,11208,01.327,553
2023-12-19T04:48:37,42.805,6.029,CST-1368DR,4082,4320,11212,01.325,553
2023-12-19T04:51:38,42.805,6.029,CST-1368DR,4082,4320,11212,01.325,553
2023-12-19T04:54:40,42.805,6.029,CST-1368DR,4082,4322,11218,01.323,553
2023-12-19T04:57:41,42.805,6.029,CST-1368DR,4081,4317,11206,01.327,553
2023-12-19T05:00:43,42.805,6.029,CST-1368DR,4081,4320,11216,01.324,553
2023-12-19T05:03:45,42.805,6.029,CST-1368DR,4082,4318,11208,01.327,553
2023-12-19T05:06:46,42.805,6.029,CST-1368DR,4082,4322,11218,01.323,553
2023-12-19T05:09:48,42.805,6.029,CST-1368DR,4082,4319,11210,01.326,553
2023-12-19T05:12:49,42.805,6.029,CST-1368DR,4082,4318,11206,01.327,553
2023-12-19T05:15:51,42.805,6.029,CST-1368DR,4082,4315,11200,01.330,553
2023-12-19T05:18:52,42.805,6.029,CST-1368DR,4082,4317,11203,01.328,553
2023-12-19T05:21:54,42.805,6.029,CST-1368DR,4082,4318,11207,01.327,553
2023-12-19T05:24:56,42.805,6.029,CST-1368DR,4082,4317,11204,01.328,553
2023-12-19T05:27:57,42.805,6.029,CST-1368DR,4082,4317,11205,01.328,553
2023-12-19T05:30:59,42.805,6.029,CST-1368DR,4082,4312,11192,01.332,553
2023-12-19T05:34:00,42.805,6.029,CST-1368DR,4082,4319,11209,01.326,553
2023-12-19T05:37:02,42.805,6.029,CST-1368DR,4082,4319,11210,01.326,553
2023-12-19T05:40:03,42.805,6.029,CST-1368DR,4081,4320,11214,01.325,553
2023-12-19T05:43:05,42.805,6.029,CST-1368DR,4082,4319,11209,01.326,553
2023-12-19T05:46:07,42.805,6.029,CST-1368DR,4081,4318,11210,01.326,553
2023-12-19T05:49:08,42.805,6.029,CST-1368DR,4081,4315,11202,01.329,553
2023-12-19T05:52:10,42.805,6.029,CST-1368DR,4081,4318,11210,01.326,553
2023-12-19T05:55:11,42.805,6.029,CST-1368DR,4081,4319,11212,01.325,553
2023-12-19T05:58:13,42.805,6.029,CST-1368DR,4082,4318,11207,01.327,553
2023-12-19T06:01:15,42.805,6.029,CST-1368DR,4081,4319,11212,01.325,553
2023-12-19T06:04:16,42.805,6.029,CST-1368DR,4081,4319,11211,01.326,553
2023-12-19T06:07:18,42.805,6.029,CST-1368DR,4081,4320,11214,01.325,553
2023-12-19T06:10:19,42.805,6.029,CST-1368DR,4081,4318,11210,01.326,553
2023-12-19T06:13:21,42.805,6.029,CST-1368DR,4082,4318,11208,01.327,553
2023-12-19T06:16:22,42.805,6.029,CST-1368DR,4082,4319,11210,01.326,553
2023-12-19T06:19:24,42.805,6.029,CST-1368DR,4081,4322,11219,01.323,553
2023-12-19T06:22:26,42.805,6.029,CST-1368DR,4082,4318,11207,01.327,553
2023-12-19T06:25:27,42.805,6.029,CST-1368DR,4081,4318,11210,01.326,553
2023-12-19T06:28:29,42.805,6.029,CST-1368DR,4081,4319,11212,01.325,553
2023-12-19T06:31:30,42.805,6.029,CST-1368DR,4081,4320,11214,01.325,553
2023-12-19T06:34:32,42.805,6.029,CST-1368DR,4081,4318,11210,01.326,553
2023-12-19T06:37:33,42.805,6.029,CST-1368DR,4082,4319,11209,01.326,553
2023-12-19T06:40:35,42.805,6.029,CST-1368DR,4081,4318,11210,01.326,553
2023-12-19T06:43:37,42.805,6.029,CST-1368DR,4082,4321,11216,01.324,553
2023-12-19T06:46:38,42.805,6.029,CST-1368DR,4082,4320,11212,01.325,553
2023-12-19T06:49:40,42.805,6.029,CST-1368DR,4082,4319,11210,01.326,553
2023-12-19T06:52:41,42.805,6.029,CST-1368DR,4082,4322,11216,01.324,553
2023-12-19T06:55:43,42.805,6.029,CST-1368DR,4082,4323,11220,01.322,553
2023-12-19T06:58:45,42.805,6.029,CST-1368DR,4082,4321,11214,01.325,553
2023-12-19T07:01:46,42.805,6.029,CST-1368DR,4082,4322,11218,01.323,553
2023-12-19T07:04:48,42.805,6.029,CST-1368DR,4082,4321,11214,01.325,553
2023-12-19T07:07:49,42.805,6.029,CST-1368DR,4082,4321,11214,01.325,553
2023-12-19T07:10:51,42.805,6.029,CST-1368DR,4082,4322,11218,01.323,553
2023-12-19T07:13:52,42.805,6.029,CST-1368DR,4082,4321,11214,01.325,553
2023-12-19T07:16:54,42.805,6.029,CST-1368DR,4082,4320,11212,01.325,553
2023-12-19T07:19:56,42.805,6.029,CST-1368DR,4082,4322,11216,01.324,553
2023-12-19T07:22:57,42.805,6.029,CST-1368DR,4081,4322,11220,01.322,553
2023-12-19T07:25:59,42.805,6.029,CST-1368DR,4082,4321,11214,01.325,553
2023-12-19T07:29:00,42.805,6.029,CST-1368DR,4082,4320,11211,01.326,553
2023-12-19T07:32:02,42.805,6.029,CST-1368DR,4082,4321,11215,01.324,553
2023-12-19T07:35:04,42.805,6.029,CST-1368DR,4082,4320,11212,01.325,553
2023-12-19T07:38:05,42.805,6.029,CST-1368DR,4082,4321,11214,01.325,553
2023-12-19T07:41:07,42.805,6.029,CST-1368DR,4081,4320,11214,01.325,553
2023-12-19T07:44:08,42.805,6.029,CST-1368DR,4082,4316,11203,01.328,553
2023-12-19T07:47:10,42.805,6.029,CST-1368DR,4082,4320,11212,01.325,553
2023-12-19T07:50:12,42.805,6.029,CST-1368DR,4082,4320,11212,01.325,553
2023-12-19T07:53:13,42.805,6.029,CST-1368DR,4082,4321,11215,01.324,553
2023-12-19T07:56:15,42.805,6.029,CST-1368DR,4082,4322,11216,01.324,553
2023-12-19T07:59:16,42.805,6.029,CST-1368DR,4081,4318,11209,01.326,553
2023-12-19T08:02:18,42.805,6.029,CST-1368DR,4082,4319,11210,01.326,553
2023-12-19T08:05:19,42.805,6.029,CST-1368DR,4082,4320,11213,01.325,553
2023-12-19T08:08:21,42.805,6.029,CST-1368DR,4081,4322,11219,01.323,553
2023-12-19T08:11:23,42.805,6.029,CST-1368DR,4082,4320,11213,01.325,553
2023-12-19T08:14:24,42.805,6.029,CST-1368DR,4081,4321,11216,01.324,553
2023-12-19T08:17:26,42.805,6.029,CST-1368DR,4081,4321,11216,01.324,553
2023-12-19T08:20:27,42.805,6.029,CST-1368DR,4082,4322,11218,01.323,553
2023-12-19T08:23:29,42.805,6.029,CST-1368DR,4081,4321,11217,01.323,553
2023-12-19T08:26:30,42.805,6.029,CST-1368DR,4081,4320,11216,01.324,553
2023-12-19T08:29:32,42.805,6.029,CST-1368DR,4081,4320,11214,01.325,553
2023-12-19T08:32:34,42.805,6.029,CST-1368DR,4081,4319,11212,01.325,553
2023-12-19T08:35:35,42.805,6.029,CST-1368DR,4082,4320,11212,01.325,553
2023-12-19T08:38:37,42.805,6.029,CST-1368DR,4082,4318,11206,01.327,553
2023-12-19T08:41:38,42.805,6.029,CST-1368DR,4081,4319,11212,01.325,553
2023-12-19T08:44:40,42.805,6.029,CST-1368DR,4081,4317,11207,01.327,553
2023-12-19T08:47:42,42.805,6.029,CST-1368DR,4082,4321,11216,01.324,553
2023-12-19T08:50:43,42.805,6.029,CST-1368DR,4082,4319,11209,01.326,553
2023-12-19T08:53:45,42.805,6.029,CST-1368DR,4081,4320,11214,01.325,553
2023-12-19T08:56:46,42.805,6.029,CST-1368DR,4081,4319,11212,01.325,553
2023-12-19T08:59:48,42.805,6.029,CST-1368DR,4082,4322,11217,01.323,553
2023-12-19T09:02:49,42.805,6.029,CST-1368DR,4081,4317,11208,01.327,553
2023-12-19T09:05:51,42.805,6.029,CST-1368DR,4082,4319,11209,01.326,553
2023-12-19T09:08:53,42.805,6.029,CST-1368DR,4081,4318,11209,01.326,553
2023-12-19T09:11:54,42.805,6.029,CST-1368DR,4081,4318,11209,01.326,553
2023-12-19T09:14:56,42.805,6.029,CST-1368DR,4081,4317,11207,01.327,553
2023-12-19T09:17:57,42.805,6.029,CST-1368DR,4081,4316,11205,01.328,553
2023-12-19T09:20:59,42.805,6.029,CST-1368DR,4082,4315,11199,01.330,553
2023-12-19T09:24:00,42.805,6.029,CST-1368DR,4081,4316,11204,01.328,553
2023-12-19T09:27:02,42.805,6.029,CST-1368DR,4081,4316,11203,01.328,553
2023-12-19T09:30:04,42.805,6.029,CST-1368DR,4081,4317,11207,01.327,553
2023-12-19T09:33:05,42.805,6.029,CST-1368DR,4082,4318,11207,01.327,553
2023-12-19T09:36:07,42.805,6.029,CST-1368DR,4081,4320,11215,01.324,553
2023-12-19T09:39:08,42.805,6.029,CST-1368DR,4081,4314,11200,01.330,553
2023-12-19T09:42:10,42.805,6.029,CST-1368DR,4081,4314,11200,01.330,553
2023-12-19T09:45:12,42.805,6.029,CST-1368DR,4081,4316,11205,01.328,553
2023-12-19T09:48:13,42.805,6.029,CST-1368DR,4081,4318,11209,01.326,553
2023-12-19T09:51:15,42.805,6.029,CST-1368DR,4081,4318,11210,01.326,553
2023-12-19T09:54:16,42.805,6.029,CST-1368DR,4081,4316,11205,01.328,553
2023-12-19T09:57:18,42.805,6.029,CST-1368DR,4081,4317,11207,01.327,553
2023-12-19T10:00:20,42.805,6.029,CST-1368DR,4081,4320,11214,01.325,553
2023-12-19T10:03:21,42.805,6.029,CST-1368DR,4081,4317,11207,01.327,553
2023-12-19T10:06:23,42.805,6.029,CST-1368DR,4081,4317,11207,01.327,553
2023-12-19T10:09:24,42.805,6.029,CST-1368DR,4081,4317,11208,01.327,553
2023-12-19T10:12:26,42.805,6.029,CST-1368DR,4081,4320,11214,01.325,553
2023-12-19T10:15:27,42.805,6.029,CST-1368DR,4082,4318,11206,01.327,553
2023-12-19T10:18:29,42.805,6.029,CST-1368DR,4081,4318,11209,01.326,553
2023-12-19T10:21:31,42.805,6.029,CST-1368DR,4081,4316,11205,01.328,553
2023-12-19T10:24:32,42.805,6.029,CST-1368DR,4081,4317,11206,01.327,553
2023-12-19T10:27:34,42.805,6.029,CST-1368DR,4082,4320,11211,01.326,553
2023-12-19T10:30:35,42.805,6.029,CST-1368DR,4081,4318,11210,01.326,553
2023-12-19T10:33:37,42.805,6.029,CST-1368DR,4081,4320,11215,01.324,553
2023-12-19T10:36:38,42.805,6.029,CST-1368DR,4081,4320,11214,01.325,553
2023-12-19T10:39:40,42.805,6.029,CST-1368DR,4081,4320,11214,01.325,553
2023-12-19T10:42:42,42.805,6.029,CST-1368DR,4081,4308,11183,01.336,553
2023-12-19T10:45:43,42.805,6.029,CST-1368DR,4081,4318,11209,01.326,553
2023-12-19T10:48:45,42.805,6.029,CST-1368DR,4081,4318,11209,01.326,553
2023-12-19T10:51:46,42.805,6.029,CST-1368DR,4081,4319,11212,01.325,553
2023-12-19T10:54:48,42.805,6.029,CST-1368DR,4081,4317,11207,01.327,553
2023-12-19T10:57:49,42.805,6.029,CST-1368DR,4081,4318,11209,01.326,553
2023-12-19T11:00:51,42.805,6.029,CST-1368DR,4081,4317,11207,01.327,553
2023-12-19T11:03:53,42.805,6.029,CST-1368DR,4081,4318,11210,01.326,553
2023-12-19T11:06:54,42.805,6.029,CST-1368DR,4081,4317,11207,01.327,553
2023-12-19T11:09:56,42.805,6.029,CST-1368DR,4081,4316,11204,01.328,553
2023-12-19T11:12:57,42.805,6.029,CST-1368DR,4081,4317,11206,01.327,553
2023-12-19T11:15:59,42.805,6.029,CST-1368DR,4081,4319,11211,01.326,553
2023-12-19T11:19:01,42.805,6.029,CST-1368DR,4081,4318,11210,01.326,553
2023-12-19T11:22:02,42.805,6.029,CST-1368DR,4081,4317,11207,01.327,553
2023-12-19T11:25:04,42.805,6.029,CST-1368DR,4081,4318,11210,01.326,553
2023-12-19T11:28:05,42.805,6.029,CST-1368DR,4081,4318,11209,01.326,553
2023-12-19T11:31:08,42.805,6.029,CST-1368DR,4081,4317,11208,01.327,553
2023-12-19T11:34:10,42.805,6.029,CST-1368DR,4081,4317,11206,01.327,553
2023-12-19T11:37:12,42.805,6.029,CST-1368DR,4081,4317,11207,01.327,553
2023-12-19T11:40:13,42.805,6.029,CST-1368DR,4081,4318,11209,01.326,553
2023-12-19T11:43:15,42.805,6.029,CST-1368DR,4081,4315,11203,01.328,553
2023-12-19T11:46:16,42.805,6.029,CST-1368DR,4081,4317,11207,01.327,553
2023-12-19T11:49:18,42.805,6.029,CST-1368DR,4081,4315,11201,01.329,553
2023-12-19T11:52:19,42.805,6.029,CST-1368DR,4081,4317,11208,01.327,553
2023-12-19T11:55:21,42.805,6.029,CST-1368DR,4081,4316,11204,01.328,553
2023-12-19T11:58:23,42.805,6.029,CST-1368DR,4081,4316,11205,01.328,553
2023-12-19T12:01:24,42.805,6.029,CST-1368DR,4081,4316,11204,01.328,553
2023-12-19T12:04:26,42.805,6.029,CST-1368DR,4081,4318,11210,01.326,553
2023-12-19T12:07:27,42.805,6.029,CST-1368DR,4081,4316,11204,01.328,553
2023-12-19T12:10:29,42.805,6.029,CST-1368DR,4081,4317,11207,01.327,553
2023-12-19T12:13:31,42.805,6.029,CST-1368DR,4081,4318,11209,01.326,553
2023-12-19T12:16:32,42.805,6.029,CST-1368DR,4081,4317,11208,01.327,553
2023-12-19T12:19:34,42.805,6.029,CST-1368DR,4081,4317,11208,01.327,553
2023-12-19T12:22:35,42.805,6.029,CST-1368DR,4081,4317,11206,01.327,553
2023-12-19T12:25:37,42.805,6.029,CST-1368DR,4081,4316,11204,01.328,553
2023-12-19T12:28:38,42.805,6.029,CST-1368DR,4081,4317,11207,01.327,553
2023-12-19T12:31:40,42.805,6.029,CST-1368DR,4081,4318,11210,01.326,553
2023-12-19T12:34:42,42.805,6.029,CST-1368DR,4081,4319,11212,01.325,553
2023-12-19T12:37:43,42.805,6.029,CST-1368DR,4081,4318,11210,01.326,553
2023-12-19T12:40:45,42.805,6.029,CST-1368DR,4081,4318,11209,01.326,553
2023-12-19T12:43:46,42.805,6.029,CST-1368DR,4081,4318,11210,01.326,553
2023-12-19T12:46:48,42.805,6.029,CST-1368DR,4081,4316,11205,01.328,553
2023-12-19T12:49:49,42.805,6.029,CST-1368DR,4081,4317,11207,01.327,553
2023-12-19T12:52:51,42.805,6.029,CST-1368DR,4081,4317,11207,01.327,553
2023-12-19T12:55:53,42.805,6.029,CST-1368DR,4081,4318,11209,01.326,553
2023-12-19T12:58:54,42.805,6.029,CST-1368DR,4081,4318,11209,01.326,553
2023-12-19T13:01:56,42.805,6.029,CST-1368DR,4081,4318,11210,01.326,553
2023-12-19T13:04:57,42.805,6.029,CST-1368DR,4081,4318,11209,01.326,552
2023-12-19T13:07:59,42.805,6.029,CST-1368DR,4081,4317,11208,01.327,553
2023-12-19T13:11:01,42.805,6.029,CST-1368DR,4081,4318,11210,01.326,553
2023-12-19T13:14:02,42.805,6.029,CST-1368DR,4081,4317,11207,01.327,553
2023-12-19T13:17:04,42.805,6.029,CST-1368DR,4081,4318,11209,01.326,553
2023-12-19T13:20:05,42.805,6.029,CST-1368DR,4081,4318,11209,01.326,553
2023-12-19T13:23:07,42.805,6.029,CST-1368DR,4081,4317,11206,01.327,553
2023-12-19T13:26:08,42.805,6.029,CST-1368DR,4081,4317,11208,01.327,553
2023-12-19T13:29:10,42.805,6.029,CST-1368DR,4081,4318,11210,01.326,553
2023-12-19T13:32:12,42.805,6.029,CST-1368DR,4081,4318,11209,01.326,553
2023-12-19T13:35:13,42.805,6.029,CST-1368DR,4081,4317,11207,01.327,553
2023-12-19T13:38:15,42.805,6.029,CST-1368DR,4081,4315,11203,01.328,553
2023-12-19T13:41:16,42.805,6.029,CST-1368DR,4081,4318,11209,01.326,553
2023-12-19T13:44:18,42.805,6.029,CST-1368DR,4081,4318,11210,01.326,553
2023-12-19T13:47:20,42.805,6.029,CST-1368DR,4081,4318,11209,01.326,553
2023-12-19T13:50:21,42.805,6.029,CST-1368DR,4081,4318,11209,01.326,553
2023-12-19T13:53:23,42.805,6.029,CST-1368DR,4081,4320,11215,01.324,553
2023-12-19T13:56:24,42.805,6.029,CST-1368DR,4081,4317,11207,01.327,553
2023-12-19T13:59:26,42.805,6.029,CST-1368DR,4081,4316,11205,01.328,553
2023-12-19T14:02:28,42.805,6.029,CST-1368DR,4081,4318,11210,01.326,553
2023-12-19T14:05:29,42.805,6.029,CST-1368DR,4081,4318,11209,01.326,553
2023-12-19T14:08:31,42.805,6.029,CST-1368DR,4081,4321,11218,01.323,553
2023-12-19T14:11:32,42.805,6.029,CST-1368DR,4081,4318,11210,01.326,553
2023-12-19T14:14:34,42.805,6.029,CST-1368DR,4081,4317,11207,01.327,553
2023-12-19T14:17:35,42.805,6.029,CST-1368DR,4081,4317,11207,01.327,553
2023-12-19T14:20:37,42.805,6.029,CST-1368DR,4081,4318,11209,01.326,553
2023-12-19T14:23:39,42.805,6.029,CST-1368DR,4081,4318,11210,01.326,553
2023-12-19T14:26:40,42.805,6.029,CST-1368DR,4081,4318,11209,01.326,553
2023-12-19T14:29:42,42.805,6.029,CST-1368DR,4081,4318,11209,01.326,553
2023-12-19T14:32:43,42.805,6.029,CST-1368DR,4081,4321,11216,01.324,553
2023-12-19T14:35:45,42.805,6.029,CST-1368DR,4081,4318,11209,01.326,553
2023-12-19T14:38:46,42.805,6.029,CST-1368DR,4081,4317,11207,01.327,553
2023-12-19T14:41:48,42.805,6.029,CST-1368DR,4081,4320,11216,01.324,553
2023-12-19T14:44:50,42.805,6.029,CST-1368DR,4081,4317,11207,01.327,553
2023-12-19T14:47:51,42.805,6.029,CST-1368DR,4081,4315,11201,01.329,553
2023-12-19T14:50:53,42.805,6.029,CST-1368DR,4081,4317,11206,01.327,553
2023-12-19T14:53:54,42.805,6.029,CST-1368DR,4081,4319,11212,01.325,553
2023-12-19T14:56:56,42.805,6.029,CST-1368DR,4081,4316,11205,01.328,553
2023-12-19T14:59:58,42.805,6.029,CST-1368DR,4081,4313,11197,01.331,553
2023-12-19T15:02:59,42.805,6.029,CST-1368DR,4081,4317,11207,01.327,553
2023-12-19T15:06:01,42.805,6.029,CST-1368DR,4081,4314,11198,01.330,553
2023-12-19T15:09:02,42.805,6.029,CST-1368DR,4081,4317,11207,01.327,553
2023-12-19T15:12:04,42.805,6.029,CST-1368DR,4081,4312,11195,01.331,553
2023-12-19T15:15:05,42.805,6.029,CST-1368DR,4081,4318,11210,01.326,552
2023-12-19T15:18:07,42.805,6.029,CST-1368DR,4081,4318,11210,01.326,553
2023-12-19T15:21:09,42.805,6.029,CST-1368DR,4081,4319,11211,01.326,553
2023-12-19T15:24:10,42.805,6.029,CST-1368DR,4081,4320,11216,01.324,553
2023-12-19T15:27:12,42.805,6.029,CST-1368DR,4081,4319,11212,01.325,553
2023-12-19T15:30:15,42.805,6.029,CST-1368DR,4081,4318,11209,01.326,553
2023-12-19T15:33:16,42.805,6.029,CST-1368DR,4081,4318,11210,01.326,553
2023-12-19T15:36:18,42.805,6.029,CST-1368DR,4081,4316,11204,01.328,553
2023-12-19T15:39:20,42.805,6.029,CST-1368DR,4081,4316,11205,01.328,552
2023-12-19T15:42:21,42.805,6.029,CST-1368DR,4081,4319,11211,01.326,553
2023-12-19T15:45:23,42.805,6.029,CST-1368DR,4081,4319,11212,01.325,553
2023-12-19T15:48:24,42.805,6.029,CST-1368DR,4081,4318,11210,01.326,553
2023-12-19T15:51:26,42.805,6.029,CST-1368DR,4081,4318,11209,01.326,553
2023-12-19T15:54:27,42.805,6.029,CST-1368DR,4081,4317,11207,01.327,553
2023-12-19T15:57:29,42.805,6.029,CST-1368DR,4081,4316,11205,01.328,553
2023-12-19T16:00:31,42.805,6.029,CST-1368DR,4081,4321,11216,01.324,553
2023-12-19T16:03:32,42.805,6.029,CST-1368DR,4081,4320,11214,01.325,553
2023-12-19T16:06:34,42.805,6.029,CST-1368DR,4081,4317,11207,01.327,553
2023-12-19T16:09:35,42.805,6.029,CST-1368DR,4081,4319,11212,01.325,553
2023-12-19T16:12:37,42.805,6.029,CST-1368DR,4081,4317,11208,01.327,553
2023-12-19T16:15:39,42.805,6.029,CST-1368DR,4081,4319,11212,01.325,553
2023-12-19T16:18:40,42.805,6.029,CST-1368DR,4081,4320,11216,01.324,553
2023-12-19T16:21:42,42.805,6.029,CST-1368DR,4081,4319,11211,01.326,553
2023-12-19T16:24:43,42.805,6.029,CST-1368DR,4081,4315,11203,01.328,553
2023-12-19T16:27:45,42.805,6.029,CST-1368DR,4081,4312,11194,01.332,553
2023-12-19T16:30:46,42.805,6.029,CST-1368DR,4081,4313,11197,01.331,553
2023-12-19T16:33:48,42.805,6.029,CST-1368DR,4081,4314,11198,01.330,553
2023-12-19T16:36:50,42.805,6.029,CST-1368DR,4081,4315,11201,01.329,553